Time,TemperatureF,DewpointF,PressureIn,WindDirection,WindDirectionDegrees,WindSpeedMPH,WindSpeedGustMPH,Humidity,HourlyPrecipIn,Conditions,Clouds,dailyrainin,SolarRadiationWatts/m^2,SoftwareType,DateUTC
2013-02-08 00:00:00,30.4,20.7,30.38,ENE,57,6.0,11.0,67,0.00,,,0.00,0.0,meteohub,2013-02-08 05:00:00,
2013-02-08 00:01:00,30.4,20.7,30.37,NE,51,3.0,11.0,67,0.00,,,0.00,0.0,meteohub,2013-02-08 05:01:00,
2013-02-08 00:07:00,30.2,20.3,30.37,NE,48,4.0,11.0,66,0.00,,,0.00,0.0,meteohub,2013-02-08 05:07:00,
2013-02-08 00:12:00,30.2,19.9,30.37,ESE,105,5.0,7.0,65,0.00,,,0.00,0.0,meteohub,2013-02-08 05:12:00,
2013-02-08 00:17:00,30.0,20.1,30.37,ENE,62,3.0,11.0,66,0.00,,,0.00,0.0,meteohub,2013-02-08 05:17:00,
2013-02-08 00:22:00,30.0,19.8,30.37,ENE,67,7.0,11.0,65,0.00,,,0.00,0.0,meteohub,2013-02-08 05:22:00,
2013-02-08 00:27:00,30.0,19.8,30.37,ENE,65,3.0,15.0,65,0.00,,,0.00,0.0,meteohub,2013-02-08 05:27:00,
2013-02-08 00:32:00,30.0,19.8,30.37,ENE,60,5.0,15.0,65,0.00,,,0.00,0.0,meteohub,2013-02-08 05:32:00,
2013-02-08 00:37:00,30.0,20.1,30.36,ESE,103,5.0,11.0,66,0.00,,,0.00,0.0,meteohub,2013-02-08 05:37:00,
2013-02-08 00:42:00,29.8,19.9,30.36,East,91,4.0,14.0,66,0.00,,,0.00,0.0,meteohub,2013-02-08 05:42:00,
2013-02-08 00:47:00,29.8,19.9,30.36,East,94,6.0,14.0,66,0.00,,,0.00,0.0,meteohub,2013-02-08 05:47:00,
2013-02-08 00:52:00,29.8,19.9,30.35,ESE,102,11.0,14.0,66,0.00,,,0.00,0.0,meteohub,2013-02-08 05:52:00,
2013-02-08 00:57:00,30.0,19.8,30.35,ENE,69,3.0,14.0,65,0.00,,,0.00,0.0,meteohub,2013-02-08 05:57:00,
2013-02-08 01:02:00,29.8,19.9,30.35,ENE,75,4.0,17.0,66,0.00,,,0.00,0.0,meteohub,2013-02-08 06:02:00,
2013-02-08 01:07:00,29.8,19.6,30.35,East,101,2.0,17.0,65,0.00,,,0.00,0.0,meteohub,2013-02-08 06:07:00,
2013-02-08 01:12:00,29.8,19.2,30.35,NE,44,5.0,14.0,64,0.00,,,0.00,0.0,meteohub,2013-02-08 06:12:00,
2013-02-08 01:17:00,29.8,18.9,30.35,ESE,112,4.0,14.0,63,0.00,,,0.00,0.0,meteohub,2013-02-08 06:17:00,
2013-02-08 01:22:00,29.8,18.9,30.35,NE,55,5.0,14.0,63,0.00,,,0.00,0.0,meteohub,2013-02-08 06:22:00,
2013-02-08 01:27:00,30.0,19.4,30.35,East,90,4.0,12.0,64,0.00,,,0.00,0.0,meteohub,2013-02-08 06:27:00,
2013-02-08 01:32:00,30.0,19.0,30.35,East,88,4.0,12.0,63,0.00,,,0.00,0.0,meteohub,2013-02-08 06:32:00,
2013-02-08 01:37:00,30.2,18.7,30.34,SE,127,8.0,12.0,62,0.00,,,0.00,0.0,meteohub,2013-02-08 06:37:00,
2013-02-08 01:42:00,30.0,18.5,30.34,East,81,6.0,11.0,62,0.00,,,0.00,0.0,meteohub,2013-02-08 06:42:00,
2013-02-08 01:47:00,30.0,18.5,30.34,ENE,65,10.0,11.0,62,0.00,,,0.00,0.0,meteohub,2013-02-08 06:47:00,
2013-02-08 01:52:00,30.0,18.5,30.34,NNE,17,6.0,11.0,62,0.00,,,0.00,0.0,meteohub,2013-02-08 06:52:00,
2013-02-08 01:57:00,30.2,18.7,30.34,NE,43,4.0,10.0,62,0.00,,,0.00,0.0,meteohub,2013-02-08 06:57:00,
2013-02-08 02:02:00,30.2,18.7,30.34,East,90,2.0,10.0,62,0.00,,,0.00,0.0,meteohub,2013-02-08 07:02:00,
2013-02-08 02:07:00,30.0,18.5,30.34,ESE,118,1.0,11.0,62,0.00,,,0.00,0.0,meteohub,2013-02-08 07:07:00,
2013-02-08 02:12:00,30.0,19.4,30.34,NE,40,7.0,11.0,64,0.00,,,0.00,0.0,meteohub,2013-02-08 07:12:00,
2013-02-08 02:17:00,30.2,19.6,30.34,East,79,3.0,11.0,64,0.00,,,0.00,0.0,meteohub,2013-02-08 07:17:00,
2013-02-08 02:22:00,30.2,19.6,30.33,ESE,105,5.0,11.0,64,0.00,,,0.00,0.0,meteohub,2013-02-08 07:22:00,
2013-02-08 02:27:00,30.2,19.9,30.33,ENE,57,5.0,11.0,65,0.00,,,0.00,0.0,meteohub,2013-02-08 07:27:00,
2013-02-08 02:32:00,30.2,20.5,30.33,NNE,25,5.0,12.0,67,0.00,,,0.00,0.0,meteohub,2013-02-08 07:32:00,
2013-02-08 02:37:00,30.0,20.5,30.32,East,87,8.0,13.0,67,0.00,,,0.00,0.0,meteohub,2013-02-08 07:37:00,
2013-02-08 02:42:00,30.0,20.7,30.32,East,98,5.0,13.0,68,0.00,,,0.00,0.0,meteohub,2013-02-08 07:42:00,
2013-02-08 02:47:00,30.0,21.0,30.32,East,86,6.0,12.0,69,0.00,,,0.00,0.0,meteohub,2013-02-08 07:47:00,
2013-02-08 02:52:00,30.0,21.4,30.32,East,84,3.0,15.0,70,0.00,,,0.00,0.0,meteohub,2013-02-08 07:52:00,
2013-02-08 02:57:00,30.0,21.4,30.31,ENE,57,6.0,15.0,70,0.00,,,0.00,0.0,meteohub,2013-02-08 07:57:00,
2013-02-08 03:02:00,30.0,21.4,30.31,East,101,8.0,15.0,70,0.00,,,0.00,0.0,meteohub,2013-02-08 08:02:00,
2013-02-08 03:07:00,30.0,21.7,30.31,ESE,107,6.0,14.0,71,0.00,,,0.00,0.0,meteohub,2013-02-08 08:07:00,
2013-02-08 03:12:00,30.0,21.7,30.31,ENE,71,5.0,13.0,71,0.00,,,0.00,0.0,meteohub,2013-02-08 08:12:00,
2013-02-08 03:17:00,30.0,22.1,30.31,NE,46,6.0,13.0,72,0.00,,,0.00,0.0,meteohub,2013-02-08 08:17:00,
2013-02-08 03:22:00,30.0,22.1,30.30,ENE,65,7.0,14.0,72,0.00,,,0.00,0.0,meteohub,2013-02-08 08:22:00,
2013-02-08 03:27:00,30.2,22.3,30.30,NNE,28,9.0,14.0,72,0.00,,,0.00,0.0,meteohub,2013-02-08 08:27:00,
2013-02-08 03:32:00,30.0,22.1,30.29,ENE,58,5.0,13.0,72,0.00,,,0.00,0.0,meteohub,2013-02-08 08:32:00,
2013-02-08 03:37:00,30.2,22.6,30.29,East,80,7.0,13.0,73,0.00,,,0.00,0.0,meteohub,2013-02-08 08:37:00,
2013-02-08 03:42:00,30.4,23.2,30.29,East,84,4.0,13.0,74,0.00,,,0.00,0.0,meteohub,2013-02-08 08:42:00,
2013-02-08 03:47:00,30.6,23.5,30.28,ENE,76,7.0,13.0,75,0.00,,,0.00,0.0,meteohub,2013-02-08 08:47:00,
2013-02-08 03:52:00,30.4,23.2,30.28,ESE,120,6.0,16.0,74,0.00,,,0.00,0.0,meteohub,2013-02-08 08:52:00,
2013-02-08 03:57:00,30.6,23.5,30.28,NE,49,5.0,16.0,75,0.00,,,0.00,0.0,meteohub,2013-02-08 08:57:00,
2013-02-08 04:02:00,30.6,23.2,30.27,ENE,65,8.0,12.0,74,0.00,,,0.00,0.0,meteohub,2013-02-08 09:02:00,
2013-02-08 04:07:00,30.7,24.1,30.27,NNE,28,8.0,12.0,76,0.00,,,0.00,0.0,meteohub,2013-02-08 09:07:00,
2013-02-08 04:12:00,30.6,23.5,30.27,NE,54,7.0,14.0,75,0.00,,,0.00,0.0,meteohub,2013-02-08 09:12:00,
2013-02-08 04:17:00,30.6,23.5,30.27,East,85,6.0,14.0,75,0.00,,,0.00,0.0,meteohub,2013-02-08 09:17:00,
2013-02-08 04:22:00,30.6,23.5,30.26,NE,36,8.0,13.0,75,0.00,,,0.00,0.0,meteohub,2013-02-08 09:22:00,
2013-02-08 04:27:00,30.7,24.1,30.26,East,98,7.0,13.0,76,0.00,,,0.00,0.0,meteohub,2013-02-08 09:27:00,
2013-02-08 04:32:00,30.9,24.3,30.26,East,87,11.0,13.0,76,0.00,,,0.00,0.0,meteohub,2013-02-08 09:32:00,
2013-02-08 04:37:00,30.9,24.3,30.25,ENE,65,8.0,13.0,76,0.00,,,0.00,0.0,meteohub,2013-02-08 09:37:00,
2013-02-08 04:42:00,31.1,24.4,30.25,ENE,70,6.0,13.0,76,0.00,,,0.00,0.0,meteohub,2013-02-08 09:42:00,
2013-02-08 04:47:00,31.3,25.0,30.25,ENE,76,8.0,13.0,77,0.00,,,0.00,0.0,meteohub,2013-02-08 09:47:00,
2013-02-08 04:52:00,31.3,25.0,30.25,NE,51,6.0,13.0,77,0.00,,,0.00,0.0,meteohub,2013-02-08 09:52:00,
2013-02-08 04:57:00,31.3,25.0,30.25,ENE,62,4.0,12.0,77,0.00,,,0.00,0.0,meteohub,2013-02-08 09:57:00,
2013-02-08 05:02:00,31.3,25.0,30.25,ENE,67,4.0,12.0,77,0.00,,,0.00,0.0,meteohub,2013-02-08 10:02:00,
2013-02-08 05:07:00,31.5,25.2,30.24,ENE,58,6.0,12.0,77,0.00,,,0.00,0.0,meteohub,2013-02-08 10:07:00,
2013-02-08 05:12:00,31.6,25.5,30.24,ENE,71,5.0,12.0,78,0.00,,,0.00,0.0,meteohub,2013-02-08 10:12:00,
2013-02-08 05:17:00,31.5,25.3,30.24,ENE,65,8.0,14.0,78,0.00,,,0.00,0.0,meteohub,2013-02-08 10:17:00,
2013-02-08 05:22:00,31.5,25.3,30.23,ENE,69,8.0,14.0,78,0.00,,,0.00,0.0,meteohub,2013-02-08 10:22:00,
2013-02-08 05:27:00,31.6,25.5,30.23,ENE,59,4.0,12.0,78,0.00,,,0.00,0.0,meteohub,2013-02-08 10:27:00,
2013-02-08 05:32:00,31.6,25.9,30.23,NE,37,7.0,12.0,79,0.00,,,0.00,0.0,meteohub,2013-02-08 10:32:00,
2013-02-08 05:37:00,31.8,26.1,30.22,ESE,104,5.0,12.0,79,0.00,,,0.00,0.0,meteohub,2013-02-08 10:37:00,
2013-02-08 05:42:00,31.8,26.1,30.22,ENE,76,7.0,12.0,79,0.00,,,0.00,0.0,meteohub,2013-02-08 10:42:00,
2013-02-08 05:47:00,32.2,26.4,30.22,East,94,6.0,17.0,79,0.00,,,0.00,0.0,meteohub,2013-02-08 10:47:00,
2013-02-08 05:52:00,32.4,27.0,30.22,ENE,60,6.0,17.0,80,0.00,,,0.00,0.0,meteohub,2013-02-08 10:52:00,
2013-02-08 05:57:00,32.2,26.8,30.22,East,93,6.0,17.0,80,0.00,,,0.00,0.0,meteohub,2013-02-08 10:57:00,
2013-02-08 06:02:00,32.2,26.8,30.21,ENE,78,4.0,16.0,80,0.00,,,0.00,0.0,meteohub,2013-02-08 11:02:00,
2013-02-08 06:07:00,32.4,26.6,30.21,East,81,4.0,12.0,79,0.00,,,0.00,0.0,meteohub,2013-02-08 11:07:00,
2013-02-08 06:12:00,32.4,27.0,30.22,East,87,7.0,13.0,80,0.00,,,0.00,0.0,meteohub,2013-02-08 11:12:00,
2013-02-08 06:17:00,32.5,27.3,30.22,East,90,5.0,13.0,81,0.00,,,0.00,0.0,meteohub,2013-02-08 11:17:00,
2013-02-08 06:22:00,32.5,27.1,30.22,ENE,65,5.0,12.0,80,0.00,,,0.00,0.0,meteohub,2013-02-08 11:22:00,
2013-02-08 06:27:00,32.5,27.1,30.21,ENE,61,8.0,12.0,80,0.00,,,0.00,0.0,meteohub,2013-02-08 11:27:00,
2013-02-08 06:32:00,32.7,27.3,30.21,NE,34,11.0,12.0,80,0.00,,,0.00,0.0,meteohub,2013-02-08 11:32:00,
2013-02-08 06:37:00,32.7,27.5,30.21,East,82,5.0,13.0,81,0.00,,,0.00,0.0,meteohub,2013-02-08 11:37:00,
2013-02-08 06:42:00,32.7,27.5,30.20,NE,40,6.0,13.0,81,0.00,,,0.00,0.0,meteohub,2013-02-08 11:42:00,
2013-02-08 06:47:00,32.7,27.3,30.20,ENE,76,7.0,13.0,80,0.00,,,0.00,0.0,meteohub,2013-02-08 11:47:00,
2013-02-08 06:52:00,32.9,27.5,30.20,East,86,6.0,10.0,80,0.00,,,0.00,0.0,meteohub,2013-02-08 11:52:00,
2013-02-08 06:57:00,32.9,27.7,30.19,ENE,73,5.0,10.0,81,0.00,,,0.00,0.0,meteohub,2013-02-08 11:57:00,
2013-02-08 07:02:00,32.7,27.5,30.19,NE,40,6.0,10.0,81,0.00,,,0.00,0.0,meteohub,2013-02-08 12:02:00,
2013-02-08 07:07:00,32.7,27.5,30.19,NE,50,8.0,14.0,81,0.00,,,0.00,0.0,meteohub,2013-02-08 12:07:00,
2013-02-08 07:12:00,32.9,28.0,30.18,NNE,17,10.0,14.0,82,0.00,,,0.00,0.0,meteohub,2013-02-08 12:12:00,
2013-02-08 07:17:00,32.9,28.2,30.18,East,80,7.0,13.0,83,0.00,,,0.00,0.0,meteohub,2013-02-08 12:17:00,
2013-02-08 07:22:00,32.9,28.2,30.19,East,92,6.0,13.0,83,0.00,,,0.00,0.0,meteohub,2013-02-08 12:22:00,
2013-02-08 07:27:00,33.1,28.4,30.19,ENE,60,5.0,13.0,83,0.00,,,0.00,5.0,meteohub,2013-02-08 12:27:00,
2013-02-08 07:32:00,33.1,28.4,30.19,ENE,59,7.0,13.0,83,0.00,,,0.00,7.0,meteohub,2013-02-08 12:32:00,
2013-02-08 07:37:00,33.1,29.1,30.18,ENE,59,4.0,13.0,85,0.00,,,0.00,9.0,meteohub,2013-02-08 12:37:00,
2013-02-08 07:42:00,32.5,28.6,30.18,ENE,73,5.0,11.0,85,0.00,,,0.00,12.0,meteohub,2013-02-08 12:42:00,
2013-02-08 07:47:00,32.5,28.6,30.18,East,89,3.0,12.0,85,0.00,,,0.00,16.0,meteohub,2013-02-08 12:47:00,
2013-02-08 07:52:00,32.4,28.6,30.18,NE,40,8.0,12.0,86,0.00,,,0.00,21.0,meteohub,2013-02-08 12:52:00,
2013-02-08 07:57:00,32.4,28.9,30.18,NE,37,7.0,11.0,87,0.01,,,0.01,25.0,meteohub,2013-02-08 12:57:00,
2013-02-08 08:02:00,32.5,29.3,30.18,ENE,64,5.0,11.0,88,0.01,,,0.01,28.0,meteohub,2013-02-08 13:02:00,
2013-02-08 08:07:00,32.5,29.3,30.17,NNE,24,5.0,11.0,88,0.02,,,0.02,32.0,meteohub,2013-02-08 13:07:00,
2013-02-08 08:12:00,32.5,29.3,30.17,East,84,2.0,12.0,88,0.02,,,0.02,35.0,meteohub,2013-02-08 13:12:00,
2013-02-08 08:17:00,32.5,29.7,30.17,ENE,68,5.0,12.0,89,0.02,,,0.02,37.0,meteohub,2013-02-08 13:17:00,
2013-02-08 08:22:00,32.7,29.8,30.17,East,93,6.0,10.0,89,0.03,,,0.03,37.0,meteohub,2013-02-08 13:22:00,
2013-02-08 08:27:00,32.7,29.8,30.17,East,95,5.0,12.0,89,0.03,,,0.03,39.0,meteohub,2013-02-08 13:27:00,
2013-02-08 08:32:00,32.9,30.0,30.17,NNE,28,5.0,12.0,89,0.03,,,0.03,42.0,meteohub,2013-02-08 13:32:00,
2013-02-08 08:37:00,33.3,30.6,30.16,East,96,5.0,12.0,90,0.04,,,0.04,44.0,meteohub,2013-02-08 13:37:00,
2013-02-08 08:42:00,33.3,30.6,30.16,ENE,61,5.0,14.0,90,0.04,,,0.04,46.0,meteohub,2013-02-08 13:42:00,
2013-02-08 08:47:00,33.3,30.6,30.16,ESE,117,5.0,14.0,90,0.04,,,0.04,49.0,meteohub,2013-02-08 13:47:00,
2013-02-08 08:52:00,33.3,30.6,30.15,ENE,63,6.0,14.0,90,0.03,,,0.04,53.0,meteohub,2013-02-08 13:52:00,
2013-02-08 08:57:00,33.3,30.6,30.15,ENE,69,5.0,13.0,90,0.04,,,0.05,53.0,meteohub,2013-02-08 13:57:00,
2013-02-08 09:02:00,33.3,30.6,30.15,NNE,13,11.0,16.0,90,0.03,,,0.05,46.0,meteohub,2013-02-08 14:02:00,
2013-02-08 09:07:00,33.3,30.6,30.14,East,89,5.0,16.0,90,0.03,,,0.05,47.0,meteohub,2013-02-08 14:07:00,
2013-02-08 09:12:00,33.3,30.6,30.14,East,87,5.0,16.0,90,0.04,,,0.05,54.0,meteohub,2013-02-08 14:12:00,
2013-02-08 09:17:00,33.6,30.9,30.14,ESE,108,6.0,15.0,90,0.03,,,0.06,56.0,meteohub,2013-02-08 14:17:00,
2013-02-08 09:22:00,33.6,30.9,30.14,NNE,26,4.0,15.0,90,0.03,,,0.06,56.0,meteohub,2013-02-08 14:22:00,
2013-02-08 09:27:00,33.6,30.9,30.14,ESE,102,5.0,15.0,90,0.04,,,0.06,62.0,meteohub,2013-02-08 14:27:00,
2013-02-08 09:32:00,33.6,30.9,30.14,NNE,32,9.0,13.0,90,0.03,,,0.07,58.0,meteohub,2013-02-08 14:32:00,
2013-02-08 09:37:00,33.6,30.9,30.13,ENE,78,7.0,14.0,90,0.03,,,0.07,58.0,meteohub,2013-02-08 14:37:00,
2013-02-08 09:42:00,33.6,30.9,30.13,East,94,6.0,14.0,90,0.03,,,0.07,60.0,meteohub,2013-02-08 14:42:00,
2013-02-08 09:47:00,33.6,30.9,30.12,NE,36,12.0,13.0,90,0.04,,,0.08,63.0,meteohub,2013-02-08 14:47:00,
2013-02-08 09:52:00,33.6,30.9,30.12,ENE,73,12.0,18.0,90,0.03,,,0.08,69.0,meteohub,2013-02-08 14:52:00,
2013-02-08 09:57:00,34.0,31.6,30.12,ESE,106,4.0,18.0,91,0.03,,,0.08,69.0,meteohub,2013-02-08 14:57:00,
2013-02-08 10:02:00,33.8,31.1,30.11,ENE,59,6.0,21.0,90,0.03,,,0.08,62.0,meteohub,2013-02-08 15:02:00,
2013-02-08 10:07:00,33.6,30.9,30.11,ENE,68,13.0,21.0,90,0.04,,,0.09,63.0,meteohub,2013-02-08 15:07:00,
2013-02-08 10:12:00,33.6,30.9,30.10,ENE,73,11.0,17.0,90,0.03,,,0.09,63.0,meteohub,2013-02-08 15:12:00,
2013-02-08 10:17:00,34.0,31.3,30.10,NE,45,6.0,19.0,90,0.03,,,0.09,62.0,meteohub,2013-02-08 15:17:00,
2013-02-08 10:22:00,33.4,30.7,30.10,NNE,31,5.0,19.0,90,0.03,,,0.09,58.0,meteohub,2013-02-08 15:22:00,
2013-02-08 10:27:00,33.6,30.9,30.09,ENE,75,6.0,19.0,90,0.02,,,0.09,56.0,meteohub,2013-02-08 15:27:00,
2013-02-08 10:32:00,33.4,30.7,30.09,ENE,73,5.0,17.0,90,0.03,,,0.10,56.0,meteohub,2013-02-08 15:32:00,
2013-02-08 10:37:00,33.6,30.9,30.09,ENE,77,13.0,17.0,90,0.03,,,0.10,60.0,meteohub,2013-02-08 15:37:00,
2013-02-08 10:42:00,33.6,31.3,30.08,NE,40,7.0,18.0,91,0.04,,,0.11,62.0,meteohub,2013-02-08 15:42:00,
2013-02-08 10:47:00,33.6,30.9,30.08,ENE,69,18.0,18.0,90,0.03,,,0.11,63.0,meteohub,2013-02-08 15:47:00,
2013-02-08 10:52:00,33.4,30.7,30.07,ENE,64,4.0,18.0,90,0.03,,,0.11,69.0,meteohub,2013-02-08 15:52:00,
2013-02-08 10:57:00,34.2,31.8,30.06,East,80,8.0,18.0,91,0.03,,,0.11,65.0,meteohub,2013-02-08 15:57:00,
2013-02-08 11:02:00,33.6,30.9,30.06,NNE,30,7.0,18.0,90,0.04,,,0.12,67.0,meteohub,2013-02-08 16:02:00,
2013-02-08 11:07:00,33.4,30.7,30.05,NNE,28,10.0,16.0,90,0.03,,,0.12,72.0,meteohub,2013-02-08 16:07:00,
2013-02-08 11:12:00,33.4,30.7,30.04,North,5,10.0,16.0,90,0.03,,,0.12,63.0,meteohub,2013-02-08 16:12:00,
2013-02-08 11:17:00,33.6,31.3,30.04,NE,56,13.0,15.0,91,0.04,,,0.13,65.0,meteohub,2013-02-08 16:17:00,
2013-02-08 11:22:00,33.4,30.7,30.03,ENE,65,8.0,22.0,90,0.04,,,0.13,62.0,meteohub,2013-02-08 16:22:00,
2013-02-08 11:27:00,33.4,30.7,30.02,ENE,62,10.0,22.0,90,0.03,,,0.13,65.0,meteohub,2013-02-08 16:27:00,
2013-02-08 11:32:00,33.3,30.6,30.02,East,85,3.0,22.0,90,0.03,,,0.13,62.0,meteohub,2013-02-08 16:32:00,
2013-02-08 11:37:00,33.8,31.5,30.02,East,90,8.0,15.0,91,0.04,,,0.14,67.0,meteohub,2013-02-08 16:37:00,
2013-02-08 11:42:00,33.6,30.9,30.01,NE,40,8.0,15.0,90,0.03,,,0.14,69.0,meteohub,2013-02-08 16:42:00,
2013-02-08 11:47:00,33.4,30.7,30.01,NE,42,7.0,15.0,90,0.04,,,0.15,69.0,meteohub,2013-02-08 16:47:00,
2013-02-08 11:52:00,33.6,31.3,30.01,NNE,24,6.0,15.0,91,0.04,,,0.15,62.0,meteohub,2013-02-08 16:52:00,
2013-02-08 11:57:00,33.8,31.5,30.00,East,87,6.0,15.0,91,0.03,,,0.15,60.0,meteohub,2013-02-08 16:57:00,
2013-02-08 12:02:00,33.4,30.7,30.00,NE,35,9.0,15.0,90,0.03,,,0.15,56.0,meteohub,2013-02-08 17:02:00,
2013-02-08 12:07:00,33.4,30.7,29.99,ENE,71,5.0,18.0,90,0.04,,,0.16,60.0,meteohub,2013-02-08 17:07:00,
2013-02-08 12:12:00,33.6,30.9,29.99,ENE,70,13.0,18.0,90,0.04,,,0.16,56.0,meteohub,2013-02-08 17:12:00,
2013-02-08 12:17:00,34.0,31.6,29.98,NE,39,11.0,19.0,91,0.03,,,0.16,54.0,meteohub,2013-02-08 17:17:00,
2013-02-08 12:22:00,33.8,31.1,29.98,East,84,11.0,19.0,90,0.04,,,0.17,47.0,meteohub,2013-02-08 17:22:00,
2013-02-08 12:27:00,33.4,30.7,29.97,NNE,30,5.0,19.0,90,0.04,,,0.17,42.0,meteohub,2013-02-08 17:27:00,
2013-02-08 12:32:00,33.6,31.3,29.97,NE,39,12.0,19.0,91,0.04,,,0.17,39.0,meteohub,2013-02-08 17:32:00,
2013-02-08 12:37:00,34.2,31.8,29.96,NE,40,5.0,19.0,91,0.04,,,0.18,39.0,meteohub,2013-02-08 17:37:00,
2013-02-08 12:42:00,33.6,31.3,29.96,NE,43,10.0,17.0,91,0.04,,,0.18,44.0,meteohub,2013-02-08 17:42:00,
2013-02-08 12:47:00,33.4,31.1,29.95,NE,52,6.0,18.0,91,0.04,,,0.19,47.0,meteohub,2013-02-08 17:47:00,
2013-02-08 12:52:00,33.3,30.9,29.95,ENE,65,5.0,18.0,91,0.04,,,0.19,47.0,meteohub,2013-02-08 17:52:00,
2013-02-08 12:57:00,33.4,31.1,29.94,NE,45,4.0,18.0,91,0.04,,,0.19,49.0,meteohub,2013-02-08 17:57:00,
2013-02-08 13:02:00,33.4,31.1,29.94,NNE,30,7.0,16.0,91,0.05,,,0.20,54.0,meteohub,2013-02-08 18:02:00,
2013-02-08 13:07:00,33.4,31.1,29.93,NE,46,11.0,16.0,91,0.04,,,0.20,62.0,meteohub,2013-02-08 18:07:00,
2013-02-08 13:12:00,33.3,30.9,29.92,North,11,11.0,15.0,91,0.04,,,0.20,60.0,meteohub,2013-02-08 18:12:00,
2013-02-08 13:17:00,33.4,31.3,29.91,NNE,19,7.0,18.0,92,0.05,,,0.21,56.0,meteohub,2013-02-08 18:17:00,
2013-02-08 13:22:00,33.4,31.1,29.90,ENE,71,5.0,18.0,91,0.05,,,0.22,53.0,meteohub,2013-02-08 18:22:00,
2013-02-08 13:27:00,33.4,31.1,29.89,NE,47,11.0,18.0,91,0.05,,,0.22,49.0,meteohub,2013-02-08 18:27:00,
2013-02-08 13:32:00,33.4,31.3,29.89,NE,41,10.0,21.0,92,0.05,,,0.22,47.0,meteohub,2013-02-08 18:32:00,
2013-02-08 13:37:00,34.2,32.0,29.88,ENE,66,12.0,21.0,92,0.05,,,0.23,46.0,meteohub,2013-02-08 18:37:00,
2013-02-08 13:42:00,34.0,31.8,29.88,NE,52,13.0,21.0,92,0.05,,,0.23,42.0,meteohub,2013-02-08 18:42:00,
2013-02-08 13:47:00,33.6,31.5,29.87,East,92,14.0,20.0,92,0.05,,,0.24,40.0,meteohub,2013-02-08 18:47:00,
2013-02-08 13:52:00,33.6,31.5,29.87,NE,34,11.0,24.0,92,0.05,,,0.24,37.0,meteohub,2013-02-08 18:52:00,
2013-02-08 13:58:00,34.2,32.0,29.87,NE,36,10.0,24.0,92,0.04,,,0.24,30.0,meteohub,2013-02-08 18:58:00,
2013-02-08 14:03:00,33.6,31.5,29.86,East,79,10.0,24.0,92,0.05,,,0.25,32.0,meteohub,2013-02-08 19:03:00,
2013-02-08 14:08:00,33.4,31.3,29.86,ENE,76,15.0,20.0,92,0.06,,,0.25,33.0,meteohub,2013-02-08 19:08:00,
2013-02-08 14:13:00,33.4,31.3,29.85,NNE,22,11.0,22.0,92,0.06,,,0.26,30.0,meteohub,2013-02-08 19:13:00,
2013-02-08 14:18:00,34.3,32.5,29.85,ENE,67,11.0,22.0,93,0.05,,,0.27,35.0,meteohub,2013-02-08 19:18:00,
2013-02-08 14:23:00,33.6,31.5,29.84,East,97,5.0,22.0,92,0.06,,,0.27,35.0,meteohub,2013-02-08 19:23:00,
2013-02-08 14:28:00,33.4,31.6,29.84,NE,40,9.0,21.0,93,0.06,,,0.28,33.0,meteohub,2013-02-08 19:28:00,
2013-02-08 14:34:00,33.6,31.8,29.83,ENE,64,7.0,21.0,93,0.06,,,0.28,35.0,meteohub,2013-02-08 19:34:00,
2013-02-08 14:39:00,34.2,32.4,29.83,North,11,12.0,21.0,93,0.05,,,0.28,33.0,meteohub,2013-02-08 19:39:00,
2013-02-08 14:44:00,33.8,32.0,29.82,ENE,60,13.0,21.0,93,0.06,,,0.29,33.0,meteohub,2013-02-08 19:44:00,
2013-02-08 14:49:00,33.6,31.8,29.82,NE,44,8.0,21.0,93,0.05,,,0.29,33.0,meteohub,2013-02-08 19:49:00,
2013-02-08 14:54:00,33.8,32.0,29.81,NE,36,8.0,21.0,93,0.05,,,0.29,30.0,meteohub,2013-02-08 19:54:00,
2013-02-08 14:59:00,34.5,32.9,29.80,NNE,29,10.0,21.0,94,0.05,,,0.30,32.0,meteohub,2013-02-08 19:59:00,
2013-02-08 15:04:00,34.0,32.2,29.79,North,5,8.0,21.0,93,0.06,,,0.31,30.0,meteohub,2013-02-08 20:04:00,
2013-02-08 15:10:00,33.8,32.0,29.79,NE,55,8.0,19.0,93,0.05,,,0.31,25.0,meteohub,2013-02-08 20:10:00,
2013-02-08 15:15:00,34.0,32.2,29.78,NNE,28,11.0,22.0,93,0.04,,,0.31,26.0,meteohub,2013-02-08 20:15:00,
2013-02-08 15:20:00,34.3,32.7,29.77,NE,52,11.0,24.0,94,0.04,,,0.32,25.0,meteohub,2013-02-08 20:20:00,
2013-02-08 15:25:00,34.0,32.2,29.77,NNE,30,7.0,24.0,93,0.04,,,0.32,21.0,meteohub,2013-02-08 20:25:00,
2013-02-08 15:30:00,34.0,32.2,29.76,ENE,65,7.0,24.0,93,0.04,,,0.32,19.0,meteohub,2013-02-08 20:30:00,
2013-02-08 15:35:00,34.2,32.5,29.75,NNE,22,16.0,20.0,94,0.04,,,0.33,16.0,meteohub,2013-02-08 20:35:00,
2013-02-08 15:41:00,34.3,32.5,29.75,NE,42,10.0,23.0,93,0.04,,,0.33,14.0,meteohub,2013-02-08 20:41:00,
2013-02-08 15:46:00,34.0,32.2,29.75,NE,42,17.0,23.0,93,0.05,,,0.34,12.0,meteohub,2013-02-08 20:46:00,
2013-02-08 15:51:00,33.8,32.0,29.75,NE,53,11.0,22.0,93,0.05,,,0.34,11.0,meteohub,2013-02-08 20:51:00,
2013-02-08 15:56:00,33.8,32.0,29.74,NE,42,9.0,22.0,93,0.04,,,0.34,9.0,meteohub,2013-02-08 20:56:00,
2013-02-08 16:01:00,34.0,32.2,29.73,NNE,27,11.0,21.0,93,0.05,,,0.36,7.0,meteohub,2013-02-08 21:01:00,
2013-02-08 16:06:00,33.8,32.0,29.73,NE,40,5.0,26.0,93,0.05,,,0.36,7.0,meteohub,2013-02-08 21:06:00,
2013-02-08 16:11:00,33.6,31.8,29.73,NE,35,5.0,26.0,93,0.05,,,0.36,5.0,meteohub,2013-02-08 21:11:00,
2013-02-08 16:16:00,33.6,32.0,29.72,NNE,26,15.0,26.0,94,0.06,,,0.37,5.0,meteohub,2013-02-08 21:16:00,
2013-02-08 16:22:00,33.8,32.2,29.72,NE,46,17.0,25.0,94,0.06,,,0.38,0.0,meteohub,2013-02-08 21:22:00,
2013-02-08 16:27:00,33.4,31.6,29.72,ENE,74,4.0,20.0,93,0.07,,,0.39,0.0,meteohub,2013-02-08 21:27:00,
2013-02-08 16:32:00,33.4,31.6,29.72,NE,38,9.0,20.0,93,0.07,,,0.39,0.0,meteohub,2013-02-08 21:32:00,
2013-02-08 16:37:00,33.6,32.0,29.72,NNE,17,8.0,20.0,94,0.06,,,0.39,0.0,meteohub,2013-02-08 21:37:00,
2013-02-08 16:42:00,34.0,32.4,29.71,North,0,7.0,20.0,94,0.06,,,0.40,0.0,meteohub,2013-02-08 21:42:00,
2013-02-08 16:47:00,33.4,31.8,29.71,NNE,15,7.0,19.0,94,0.06,,,0.40,0.0,meteohub,2013-02-08 21:47:00,
2013-02-08 16:52:00,33.4,31.8,29.71,NE,45,10.0,16.0,94,0.06,,,0.40,0.0,meteohub,2013-02-08 21:52:00,
2013-02-08 16:57:00,33.6,32.0,29.70,NNE,12,8.0,17.0,94,0.05,,,0.40,0.0,meteohub,2013-02-08 21:57:00,
2013-02-08 17:02:00,33.8,32.2,29.70,North,0,8.0,17.0,94,0.05,,,0.41,0.0,meteohub,2013-02-08 22:02:00,
2013-02-08 17:08:00,33.3,31.6,29.70,NE,36,20.0,22.0,94,0.06,,,0.42,0.0,meteohub,2013-02-08 22:08:00,
2013-02-08 17:13:00,33.3,31.6,29.70,NNE,22,9.0,22.0,94,0.05,,,0.42,0.0,meteohub,2013-02-08 22:13:00,
2013-02-08 17:18:00,33.4,31.8,29.69,North,5,7.0,22.0,94,0.05,,,0.42,0.0,meteohub,2013-02-08 22:18:00,
2013-02-08 17:23:00,33.3,31.6,29.69,ENE,71,11.0,21.0,94,0.05,,,0.43,0.0,meteohub,2013-02-08 22:23:00,
2013-02-08 17:28:00,33.1,31.5,29.69,NNE,24,8.0,19.0,94,0.05,,,0.44,0.0,meteohub,2013-02-08 22:28:00,
2013-02-08 17:33:00,33.1,31.5,29.68,North,10,9.0,22.0,94,0.05,,,0.44,0.0,meteohub,2013-02-08 22:33:00,
2013-02-08 17:38:00,33.3,31.6,29.68,North,9,9.0,22.0,94,0.05,,,0.44,0.0,meteohub,2013-02-08 22:38:00,
2013-02-08 17:43:00,33.3,31.6,29.68,NNE,30,11.0,21.0,94,0.05,,,0.45,0.0,meteohub,2013-02-08 22:43:00,
2013-02-08 17:49:00,33.1,31.5,29.68,NE,34,9.0,18.0,94,0.07,,,0.47,0.0,meteohub,2013-02-08 22:49:00,
2013-02-08 17:54:00,32.9,31.3,29.67,NE,42,10.0,18.0,94,0.07,,,0.47,0.0,meteohub,2013-02-08 22:54:00,
2013-02-08 17:59:00,33.3,32.0,29.67,NNE,28,12.0,17.0,95,0.06,,,0.47,0.0,meteohub,2013-02-08 22:59:00,
2013-02-08 18:04:00,32.9,31.3,29.66,NNE,22,9.0,17.0,94,0.07,,,0.48,0.0,meteohub,2013-02-08 23:04:00,
2013-02-08 18:09:00,32.7,31.1,29.65,North,355,12.0,18.0,94,0.07,,,0.49,0.0,meteohub,2013-02-08 23:09:00,
2013-02-08 18:14:00,32.5,30.9,29.65,NNE,22,8.0,18.0,94,0.07,,,0.49,0.0,meteohub,2013-02-08 23:14:00,
2013-02-08 18:20:00,32.5,31.3,29.64,NE,41,4.0,18.0,95,0.07,,,0.49,0.0,meteohub,2013-02-08 23:20:00,
2013-02-08 18:25:00,32.4,30.7,29.63,NNW,341,0.0,17.0,94,0.06,,,0.50,0.0,meteohub,2013-02-08 23:25:00,
2013-02-08 18:30:00,32.2,30.6,29.63,North,5,0.0,17.0,94,0.06,,,0.50,0.0,meteohub,2013-02-08 23:30:00,
2013-02-08 18:35:00,32.0,30.7,29.63,North,5,0.0,17.0,95,0.06,,,0.50,0.0,meteohub,2013-02-08 23:35:00,
2013-02-08 18:40:00,31.8,30.6,29.62,North,5,0.0,0.0,95,0.04,,,0.50,0.0,meteohub,2013-02-08 23:40:00,
2013-02-08 18:45:00,32.0,30.7,29.61,North,5,0.0,0.0,95,0.03,,,0.50,0.0,meteohub,2013-02-08 23:45:00,
2013-02-08 18:51:00,31.8,30.6,29.61,North,5,0.0,0.0,95,0.03,,,0.50,0.0,meteohub,2013-02-08 23:51:00,
2013-02-08 18:56:00,31.6,30.2,29.61,NNE,17,0.0,0.0,94,0.03,,,0.50,0.0,meteohub,2013-02-08 23:56:00,
2013-02-08 19:01:00,31.5,30.2,29.60,NNE,30,0.0,0.0,95,0.02,,,0.50,0.0,meteohub,2013-02-09 00:01:00,
2013-02-08 19:06:00,31.5,30.2,29.60,NNE,23,0.0,0.0,95,0.01,,,0.00,0.0,meteohub,2013-02-09 00:06:00,
2013-02-08 19:11:00,31.3,29.8,29.59,NNE,27,0.0,0.0,94,0.01,,,0.00,0.0,meteohub,2013-02-09 00:11:00,
2013-02-08 19:16:00,30.9,29.7,29.59,North,0,0.0,0.0,95,0.01,,,0.00,0.0,meteohub,2013-02-09 00:16:00,
2013-02-08 19:22:00,30.7,29.5,29.58,NNE,26,0.0,0.0,95,0.01,,,0.01,0.0,meteohub,2013-02-09 00:22:00,
2013-02-08 19:27:00,30.6,29.1,29.58,East,87,0.0,0.0,94,0.01,,,0.01,0.0,meteohub,2013-02-09 00:27:00,
2013-02-08 19:32:00,30.4,28.9,29.57,NNE,26,0.0,0.0,94,0.01,,,0.01,0.0,meteohub,2013-02-09 00:32:00,
2013-02-08 19:37:00,30.2,28.9,29.56,NNE,23,0.0,0.0,95,0.01,,,0.01,0.0,meteohub,2013-02-09 00:37:00,
2013-02-08 19:42:00,29.8,28.4,29.55,NNE,23,0.0,0.0,94,0.01,,,0.01,0.0,meteohub,2013-02-09 00:42:00,
2013-02-08 19:47:00,29.7,28.4,29.55,NNE,25,0.0,0.0,95,0.01,,,0.01,0.0,meteohub,2013-02-09 00:47:00,
2013-02-08 19:52:00,29.7,28.4,29.54,NNE,22,0.0,0.0,95,0.01,,,0.01,0.0,meteohub,2013-02-09 00:52:00,
2013-02-08 19:57:00,29.7,28.4,29.54,NE,34,0.0,0.0,95,0.01,,,0.01,0.0,meteohub,2013-02-09 00:57:00,
2013-02-08 20:02:00,29.8,28.6,29.53,NE,34,0.0,0.0,95,0.01,,,0.01,0.0,meteohub,2013-02-09 01:02:00,
2013-02-08 20:07:00,29.8,28.6,29.53,NE,34,0.0,0.0,95,0.01,,,0.01,0.0,meteohub,2013-02-09 01:07:00,
2013-02-08 20:12:00,29.8,28.6,29.53,NE,34,0.0,0.0,95,0.01,,,0.01,0.0,meteohub,2013-02-09 01:12:00,
2013-02-08 20:17:00,29.8,28.6,29.52,NE,34,0.0,0.0,95,0.00,,,0.01,0.0,meteohub,2013-02-09 01:17:00,
2013-02-08 20:22:00,30.0,28.8,29.52,NE,34,0.0,0.0,95,0.01,,,0.02,0.0,meteohub,2013-02-09 01:22:00,
2013-02-08 20:27:00,30.0,28.8,29.52,NE,34,0.0,0.0,95,0.01,,,0.02,0.0,meteohub,2013-02-09 01:27:00,
2013-02-08 20:32:00,30.0,28.8,29.52,NE,34,0.0,0.0,95,0.01,,,0.02,0.0,meteohub,2013-02-09 01:32:00,
2013-02-08 20:37:00,30.0,28.8,29.51,NE,34,0.0,0.0,95,0.01,,,0.02,0.0,meteohub,2013-02-09 01:37:00,
2013-02-08 20:42:00,30.0,28.8,29.49,NE,34,0.0,0.0,95,0.01,,,0.02,0.0,meteohub,2013-02-09 01:42:00,
2013-02-08 20:47:00,30.0,28.8,29.50,NE,34,0.0,0.0,95,0.01,,,0.02,0.0,meteohub,2013-02-09 01:47:00,
2013-02-08 20:52:00,30.0,28.8,29.49,NE,34,0.0,0.0,95,0.01,,,0.02,0.0,meteohub,2013-02-09 01:52:00,
2013-02-08 20:57:00,30.0,28.8,29.49,NE,34,0.0,0.0,95,0.02,,,0.03,0.0,meteohub,2013-02-09 01:57:00,
2013-02-08 21:02:00,30.0,28.8,29.48,NE,34,0.0,0.0,95,0.02,,,0.03,0.0,meteohub,2013-02-09 02:02:00,
2013-02-08 21:07:00,30.2,28.9,29.49,NE,34,0.0,0.0,95,0.02,,,0.03,0.0,meteohub,2013-02-09 02:07:00,
2013-02-08 21:12:00,30.2,28.9,29.49,NE,34,0.0,0.0,95,0.02,,,0.03,0.0,meteohub,2013-02-09 02:12:00,
2013-02-08 21:17:00,30.2,28.9,29.49,NE,34,0.0,0.0,95,0.02,,,0.03,0.0,meteohub,2013-02-09 02:17:00,
2013-02-08 21:22:00,30.2,28.9,29.49,NE,34,0.0,0.0,95,0.01,,,0.03,0.0,meteohub,2013-02-09 02:22:00,
2013-02-08 21:27:00,30.2,28.9,29.49,NE,34,0.0,0.0,95,0.01,,,0.03,0.0,meteohub,2013-02-09 02:27:00,
2013-02-08 21:32:00,30.0,28.8,29.49,NE,34,0.0,0.0,95,0.01,,,0.03,0.0,meteohub,2013-02-09 02:32:00,
2013-02-08 21:37:00,29.8,28.6,29.50,NE,34,0.0,0.0,95,0.01,,,0.03,0.0,meteohub,2013-02-09 02:37:00,
2013-02-08 21:42:00,29.8,28.6,29.50,NE,34,0.0,0.0,95,0.01,,,0.03,0.0,meteohub,2013-02-09 02:42:00,
2013-02-08 21:47:00,29.7,28.4,29.50,NE,34,0.0,0.0,95,0.01,,,0.03,0.0,meteohub,2013-02-09 02:47:00,
2013-02-08 21:52:00,29.5,28.2,29.50,NE,34,0.0,0.0,95,0.00,,,0.03,0.0,meteohub,2013-02-09 02:52:00,
2013-02-08 21:57:00,29.1,27.9,29.51,NE,34,0.0,0.0,95,0.00,,,0.03,0.0,meteohub,2013-02-09 02:57:00,
2013-02-08 22:02:00,28.9,27.7,29.52,NE,34,0.0,0.0,95,0.00,,,0.03,0.0,meteohub,2013-02-09 03:02:00,
2013-02-08 22:07:00,28.8,27.5,29.53,NE,34,0.0,0.0,95,0.00,,,0.03,0.0,meteohub,2013-02-09 03:07:00,
2013-02-08 22:12:00,28.4,27.1,29.54,NE,34,0.0,0.0,95,0.00,,,0.03,0.0,meteohub,2013-02-09 03:12:00,
2013-02-08 22:17:00,28.2,27.0,29.54,NE,34,0.0,0.0,95,0.00,,,0.03,0.0,meteohub,2013-02-09 03:17:00,
2013-02-08 22:22:00,27.9,26.6,29.54,NE,34,0.0,0.0,95,0.00,,,0.03,0.0,meteohub,2013-02-09 03:22:00,
2013-02-08 22:27:00,27.9,26.6,29.55,NE,34,0.0,0.0,95,0.00,,,0.03,0.0,meteohub,2013-02-09 03:27:00,
2013-02-08 22:32:00,27.7,26.4,29.55,NE,34,0.0,0.0,95,0.00,,,0.03,0.0,meteohub,2013-02-09 03:32:00,
2013-02-08 22:37:00,27.5,26.2,29.55,NE,34,0.0,0.0,95,0.00,,,0.03,0.0,meteohub,2013-02-09 03:37:00,
2013-02-08 22:42:00,27.3,26.1,29.56,NE,34,0.0,0.0,95,0.00,,,0.03,0.0,meteohub,2013-02-09 03:42:00,
2013-02-08 22:47:00,27.1,25.9,29.56,NE,34,0.0,0.0,95,0.00,,,0.03,0.0,meteohub,2013-02-09 03:47:00,
2013-02-08 22:52:00,27.0,25.7,29.57,NE,34,0.0,0.0,95,0.00,,,0.03,0.0,meteohub,2013-02-09 03:52:00,
2013-02-08 22:57:00,26.8,25.5,29.57,NE,34,0.0,0.0,95,0.00,,,0.03,0.0,meteohub,2013-02-09 03:57:00,
2013-02-08 23:02:00,26.2,25.0,29.57,NE,34,0.0,0.0,95,0.00,,,0.03,0.0,meteohub,2013-02-09 04:02:00,
2013-02-08 23:07:00,26.1,24.6,29.57,NE,34,0.0,0.0,94,0.00,,,0.03,0.0,meteohub,2013-02-09 04:07:00,
2013-02-08 23:12:00,25.5,24.1,29.58,NE,34,0.0,0.0,94,0.00,,,0.03,0.0,meteohub,2013-02-09 04:12:00,
2013-02-08 23:17:00,25.3,23.9,29.58,NE,34,0.0,0.0,94,0.00,,,0.03,0.0,meteohub,2013-02-09 04:17:00,
2013-02-08 23:22:00,25.0,23.5,29.59,NE,34,0.0,0.0,94,0.00,,,0.03,0.0,meteohub,2013-02-09 04:22:00,
2013-02-08 23:27:00,24.6,23.2,29.60,NE,34,0.0,0.0,94,0.00,,,0.03,0.0,meteohub,2013-02-09 04:27:00,
2013-02-08 23:33:00,24.4,23.0,29.60,NE,34,0.0,0.0,94,0.00,,,0.03,0.0,meteohub,2013-02-09 04:33:00,
2013-02-08 23:38:00,24.3,22.8,29.60,NE,34,0.0,0.0,94,0.00,,,0.03,0.0,meteohub,2013-02-09 04:38:00,
2013-02-08 23:43:00,24.1,22.6,29.60,NE,34,0.0,0.0,94,0.00,,,0.03,0.0,meteohub,2013-02-09 04:43:00,
2013-02-08 23:48:00,23.9,22.5,29.60,NE,34,0.0,0.0,94,0.00,,,0.03,0.0,meteohub,2013-02-09 04:48:00,
2013-02-08 23:53:00,23.7,22.3,29.61,NE,34,0.0,0.0,94,0.00,,,0.03,0.0,meteohub,2013-02-09 04:53:00,
2013-02-08 23:58:00,23.5,22.1,29.61,NE,34,0.0,0.0,94,0.00,,,0.03,0.0,meteohub,2013-02-09 04:58:00,